| time (UTC) | temp F | wind direction | speed MPH | gust MPH | rain 1hr in | rain 24hr in | rain mn in | humidity % | barometer mb |
| 20260506184527 | 69 | 51 | 0.0 | 1.0 | 0.00 | 0.00 | 0.00 | 73 | 1018.7 |
| 20260506183028 | 68 | 51 | 0.0 | 0.0 | 0.00 | 0.00 | 0.00 | 74 | 1018.8 |
| 20260506181525 | 69 | 51 | 0.0 | 2.0 | 0.00 | 0.00 | 0.00 | 73 | 1018.8 |
| 20260506180023 | 69 | 52 | 0.0 | 0.0 | 0.00 | 0.00 | 0.00 | 72 | 1018.7 |
| 20260506174520 | 68 | 52 | 0.0 | 1.0 | 0.00 | 0.00 | 0.00 | 74 | 1018.8 |
| 20260506173022 | 67 | 52 | 0.0 | 1.0 | 0.00 | 0.00 | 0.00 | 76 | 1019.0 |
| 20260506171513 | 65 | 52 | 0.0 | 1.0 | 0.00 | 0.00 | 0.00 | 81 | 1019.0 |
| 20260506170010 | 62 | 52 | 0.0 | 1.0 | 0.00 | 0.00 | 0.00 | 83 | 1019.1 |
| 20260506164506 | 60 | 52 | 0.0 | 2.0 | 0.00 | 0.00 | 0.00 | 84 | 1019.2 |
| 20260506163003 | 59 | 52 | 0.0 | 0.0 | 0.00 | 0.00 | 0.00 | 87 | 1019.2 |
| 20260506161600 | 59 | 52 | 0.0 | 0.0 | 0.00 | 0.00 | 0.00 | 87 | 1019.3 |
| 20260506160110 | 58 | 52 | 0.0 | 0.0 | 0.00 | 0.00 | 0.00 | 87 | 1019.2 |
| 20260506154556 | 57 | 52 | 0.0 | 0.0 | 0.00 | 0.00 | 0.00 | 87 | 1019.3 |
| 20260506153055 | 57 | 52 | 0.0 | 0.0 | 0.00 | 0.00 | 0.00 | 87 | 1019.3 |
| 20260506151551 | 56 | 52 | 0.0 | 0.0 | 0.00 | 0.00 | 0.00 | 87 | 1019.2 |
| 20260506150050 | 56 | 52 | 0.0 | 0.0 | 0.00 | 0.00 | 0.00 | 87 | 1019.2 |
| 20260506144550 | 55 | 52 | 0.0 | 0.0 | 0.00 | 0.00 | 0.00 | 87 | 1019.2 |
| 20260506143049 | 55 | 52 | 0.0 | 0.0 | 0.00 | 0.00 | 0.00 | 87 | 1019.1 |
| 20260506141605 | 55 | 52 | 0.0 | 0.0 | 0.00 | 0.00 | 0.00 | 87 | 1019.0 |
| 20260506140047 | 55 | 52 | 0.0 | 0.0 | 0.00 | 0.00 | 0.00 | 87 | 1018.9 |
| 20260506134545 | 55 | 52 | 0.0 | 0.0 | 0.00 | 0.00 | 0.00 | 87 | 1018.9 |
| 20260506133045 | 55 | 52 | 0.0 | 0.0 | 0.00 | 0.00 | 0.00 | 87 | 1018.8 |
| 20260506131544 | 55 | 52 | 0.0 | 0.0 | 0.00 | 0.00 | 0.00 | 87 | 1018.8 |
| 20260506130042 | 55 | 52 | 0.0 | 0.0 | 0.00 | 0.00 | 0.00 | 87 | 1018.6 |
| 20260506124542 | 55 | 52 | 0.0 | 0.0 | 0.00 | 0.00 | 0.00 | 87 | 1018.5 |
| 20260506123043 | 55 | 52 | 0.0 | 0.0 | 0.00 | 0.00 | 0.00 | 87 | 1018.4 |
| 20260506121541 | 55 | 52 | 0.0 | 0.0 | 0.00 | 0.00 | 0.00 | 87 | 1018.5 |
| 20260506120104 | 55 | 52 | 0.0 | 0.0 | 0.00 | 0.00 | 0.00 | 87 | 1018.4 |
| 20260506114536 | 55 | 52 | 0.0 | 0.0 | 0.00 | 0.00 | 0.00 | 87 | 1018.2 |
| 20260506113036 | 55 | 52 | 0.0 | 0.0 | 0.00 | 0.00 | 0.00 | 87 | 1018.3 |
| 20260506111534 | 55 | 52 | 0.0 | 0.0 | 0.00 | 0.00 | 0.00 | 87 | 1018.2 |
| 20260506110033 | 55 | 52 | 0.0 | 0.0 | 0.00 | 0.00 | 0.00 | 87 | 1018.0 |
| 20260506104532 | 55 | 52 | 0.0 | 0.0 | 0.00 | 0.00 | 0.00 | 87 | 1017.9 |
| 20260506103032 | 55 | 52 | 0.0 | 0.0 | 0.00 | 0.00 | 0.00 | 87 | 1018.0 |
| 20260506101529 | 55 | 52 | 0.0 | 0.0 | 0.00 | 0.00 | 0.00 | 87 | 1017.7 |
| 20260506100027 | 55 | 52 | 0.0 | 0.0 | 0.00 | 0.00 | 0.00 | 87 | 1017.6 |
| 20260506094533 | 55 | 52 | 0.0 | 0.0 | 0.00 | 0.00 | 0.00 | 86 | 1017.5 |
| 20260506093041 | 55 | 52 | 0.0 | 0.0 | 0.00 | 0.00 | 0.00 | 86 | 1017.6 |
| 20260506091525 | 55 | 52 | 0.0 | 0.0 | 0.00 | 0.00 | 0.00 | 86 | 1017.6 |
| 20260506090023 | 55 | 52 | 0.0 | 0.0 | 0.00 | 0.00 | 0.00 | 86 | 1017.5 |
| 20260506084523 | 56 | 52 | 0.0 | 0.0 | 0.00 | 0.00 | 0.00 | 86 | 1017.6 |
| 20260506083022 | 56 | 52 | 0.0 | 0.0 | 0.00 | 0.00 | 0.00 | 86 | 1017.7 |
| 20260506081520 | 56 | 52 | 0.0 | 0.0 | 0.00 | 0.00 | 0.00 | 86 | 1017.6 |
| 20260506073015 | 56 | 52 | 0.0 | 0.0 | 0.00 | 0.00 | 0.00 | 86 | 1017.3 |
| 20260506071514 | 56 | 52 | 0.0 | 0.0 | 0.00 | 0.00 | 0.00 | 85 | 1017.2 |
| 20260506061507 | 56 | 52 | 0.0 | 0.0 | 0.00 | 0.01 | 0.00 | 85 | 1016.6 |
| 20260506044603 | 58 | 52 | 0.0 | 0.0 | 0.00 | 0.01 | 0.00 | 82 | 1016.0 |
| 20260506043057 | 58 | 52 | 0.0 | 0.0 | 0.00 | 0.01 | 0.00 | 81 | 1015.7 |
| 20260506041557 | 58 | 52 | 0.0 | 0.0 | 0.00 | 0.01 | 0.00 | 80 | 1015.4 |
| 20260506040058 | 59 | 52 | 0.0 | 1.0 | 0.00 | 0.01 | 0.00 | 79 | 1015.3 |
| 20260506034552 | 60 | 52 | 0.0 | 0.0 | 0.00 | 0.01 | 0.00 | 79 | 1015.1 |
| 20260506033051 | 60 | 52 | 0.0 | 0.0 | 0.00 | 0.01 | 0.00 | 79 | 1015.0 |
| 20260506031557 | 60 | 52 | 0.0 | 1.0 | 0.00 | 0.01 | 0.00 | 78 | 1014.5 |
| 20260506030105 | 61 | 52 | 0.0 | 0.0 | 0.00 | 0.01 | 0.00 | 79 | 1014.3 |
| 20260506024547 | 61 | 52 | 0.0 | 1.0 | 0.00 | 0.02 | 0.00 | 78 | 1014.1 |
| 20260506023047 | 62 | 52 | 0.0 | 0.0 | 0.00 | 0.02 | 0.00 | 81 | 1014.0 |
| 20260506021546 | 62 | 52 | 0.0 | 1.0 | 0.00 | 0.02 | 0.00 | 79 | 1013.8 |
| 20260506020046 | 62 | 52 | 0.0 | 0.0 | 0.00 | 0.02 | 0.00 | 79 | 1013.6 |
| 20260506014546 | 63 | 52 | 0.0 | 1.0 | 0.00 | 0.06 | 0.00 | 77 | 1013.4 |
| 20260506013047 | 63 | 52 | 0.0 | 0.0 | 0.00 | 0.06 | 0.00 | 77 | 1013.4 |
| 20260506011552 | 64 | 52 | 0.0 | 1.0 | 0.00 | 0.06 | 0.00 | 77 | 1013.3 |
| 20260506010044 | 64 | 52 | 0.0 | 2.0 | 0.00 | 0.06 | 0.00 | 76 | 1013.2 |
| 20260506004620 | 64 | 53 | 0.0 | 1.0 | 0.00 | 0.08 | 0.00 | 76 | 1013.1 |
| 20260506003043 | 64 | 53 | 0.0 | 1.0 | 0.00 | 0.08 | 0.00 | 76 | 1013.2 |
| 20260506001544 | 65 | 53 | 0.0 | 1.0 | 0.00 | 0.08 | 0.00 | 75 | 1013.0 |
| 20260506000045 | 65 | 73 | 0.0 | 0.0 | 0.00 | 0.08 | 0.00 | 80 | 1013.0 |
| 20260505234606 | 65 | 73 | 0.0 | 1.0 | 0.00 | 0.11 | 0.00 | 76 | 1013.0 |
| 20260505233041 | 65 | 73 | 0.0 | 1.0 | 0.00 | 0.11 | 0.00 | 75 | 1013.0 |
| 20260505231539 | 65 | 73 | 0.0 | 3.0 | 0.00 | 0.11 | 0.00 | 75 | 1013.0 |
| 20260505230038 | 65 | 73 | 0.0 | 1.0 | 0.00 | 0.11 | 0.00 | 76 | 1013.1 |
| 20260505224538 | 65 | 73 | 0.0 | 2.0 | 0.00 | 0.18 | 0.00 | 77 | 1013.2 |
| 20260505223046 | 64 | 74 | 0.0 | 1.0 | 0.00 | 0.18 | 0.00 | 81 | 1013.2 |
| 20260505221534 | 64 | 73 | 0.0 | 0.0 | 0.00 | 0.18 | 0.00 | 78 | 1013.4 |
| 20260505220032 | 63 | 73 | 0.0 | 2.0 | 0.00 | 0.18 | 0.00 | 80 | 1013.6 |
| 20260505214538 | 63 | 73 | 0.0 | 1.0 | 0.00 | 0.23 | 0.00 | 82 | 1013.8 |
| 20260505213029 | 62 | 74 | 0.0 | 0.0 | 0.00 | 0.23 | 0.00 | 83 | 1013.9 |
| 20260505211529 | 62 | 74 | 0.0 | 1.0 | 0.00 | 0.23 | 0.00 | 83 | 1014.0 |
| 20260505210030 | 62 | 74 | 0.0 | 1.0 | 0.00 | 0.23 | 0.00 | 83 | 1014.0 |
| 20260505204528 | 61 | 74 | 0.0 | 0.0 | 0.00 | 0.23 | 0.00 | 84 | 1014.1 |
| 20260505203024 | 60 | 74 | 0.0 | 1.0 | 0.00 | 0.23 | 0.00 | 85 | 1014.2 |
| 20260505201526 | 60 | 74 | 0.0 | 1.0 | 0.00 | 0.23 | 0.00 | 86 | 1014.3 |
| 20260505200024 | 60 | 74 | 0.0 | 0.0 | 0.00 | 0.23 | 0.00 | 86 | 1014.3 |
| 20260505194516 | 60 | 74 | 0.0 | 1.0 | 0.00 | 0.23 | 0.00 | 86 | 1014.5 |
| 20260505193013 | 59 | 74 | 0.0 | 0.0 | 0.00 | 0.23 | 0.00 | 87 | 1014.4 |
| 20260505191512 | 59 | 74 | 0.0 | 0.0 | 0.00 | 0.23 | 0.00 | 86 | 1014.4 |
| 20260505190010 | 58 | 71 | 0.0 | 0.0 | 0.00 | 0.23 | 0.00 | 86 | 1014.4 |